Language: 


Des rapports , des résumés tant et plus, au choix de chacun....


Données statistiques de la station
Quotidien Rapport Décembre 18, 2017 Unités:  Métrique    Anglais   les deux
« Précédent Jour
Suivant Jour »
Quotidien Hebdomadaire Mensuel Annuel Actuel
  Haut: Bas: Moyen:
Température: -17.8 °C -16.3 °C -13.9 °C
Pt de rosée: -17.8 °C -16.1 °C -14.2 °C
Humidité: Humidity % 80 % 94 %
Vitesse du vent: 0 km/h 0 km/h 10.6 km/h
Rafales: 0 km/h - -
Vent:- - WNW
Pression: 0 hPa 34405.1 hPa -
Précipitation: 45.72 mm    
Historical Graphs
 
 
Données statistiques pour Décembre 18, 2017
Heure Température Point de rosée Pression Vent Vitesse du vent Refales Humidité Pluie (taux horaire)
-17.8 °C -17.8 °C 0 hPa Calm     Humidity % 0 mm
00:00 -14.5 °C -14.4 °C 34476.3 hPa WSW 16.9 km/h 19.2 km/h 98 % 33.02 mm
00:02 -14.4 °C -14.4 °C 34476.3 hPa WSW 15 km/h 22.5 km/h 98 % 33.02 mm
00:07 -14.4 °C -14.4 °C 34476.3 hPa WSW 14.5 km/h 22.5 km/h 98 % 38.1 mm
00:12 -14.3 °C -14.4 °C 34476.3 hPa West 11.1 km/h 19.2 km/h 98 % 38.1 mm
00:16 -14.3 °C -14.4 °C 34476.3 hPa WSW 12.7 km/h 19.2 km/h 98 % 38.1 mm
00:21 -14.2 °C -13.9 °C 34476.3 hPa WSW 20.3 km/h 22 km/h 98 % 38.1 mm
00:23 -14.2 °C -13.9 °C 34476.3 hPa WSW 14 km/h 22 km/h 98 % 38.1 mm
00:28 -14.1 °C -13.9 °C 34428.8 hPa West 14 km/h 22.5 km/h 98 % 38.1 mm
00:30 -14 °C -13.9 °C 34428.8 hPa WNW 14 km/h 22.5 km/h 98 % 38.1 mm
00:35 -13.9 °C -13.9 °C 34428.8 hPa WSW 11.1 km/h 22.5 km/h 98 % 38.1 mm
00:40 -13.9 °C -13.9 °C 34476.3 hPa WSW 14.5 km/h 20.3 km/h 98 % 38.1 mm
00:45 -13.9 °C -13.9 °C 34476.3 hPa WSW 12.7 km/h 18.7 km/h 98 % 38.1 mm
00:48 -13.9 °C -13.9 °C 34476.3 hPa WSW 14 km/h 18.7 km/h 98 % 38.1 mm
00:53 -13.9 °C -13.9 °C 34476.3 hPa WSW 16.3 km/h 20.9 km/h 98 % 33.02 mm
00:55 -13.9 °C -13.9 °C 34476.3 hPa SW 19.6 km/h 20.9 km/h 98 % 33.02 mm
01:00 -13.9 °C -13.9 °C 34405.1 hPa WSW 19.2 km/h 20.9 km/h 98 % 33.02 mm
01:01 -13.9 °C -13.9 °C 34405.1 hPa WSW 15 km/h 20.9 km/h 98 % 33.02 mm
01:04 -13.8 °C -13.9 °C 34405.1 hPa WSW 16.3 km/h 22 km/h 98 % 25.4 mm
01:06 -13.8 °C -13.9 °C 34405.1 hPa WSW 19.2 km/h 22.5 km/h 98 % 25.4 mm
01:09 -13.8 °C -13.9 °C 34405.1 hPa WSW 14.5 km/h 22.5 km/h 98 % 25.4 mm
01:11 -13.7 °C -13.9 °C 34428.8 hPa West 20.3 km/h 22.5 km/h 98 % 25.4 mm
01:16 -13.7 °C -13.9 °C 34428.8 hPa WSW 16.3 km/h 22.5 km/h 98 % 12.7 mm
01:18 -13.7 °C -13.9 °C 34428.8 hPa WNW 14 km/h 22.5 km/h 98 % 12.7 mm
01:23 -13.6 °C -13.3 °C 34428.8 hPa West 7.6 km/h 22.5 km/h 98 % 12.7 mm
01:24 -13.6 °C -13.3 °C 34428.8 hPa WNW 12.7 km/h 19.2 km/h 98 % 12.7 mm
01:30 -13.4 °C -13.3 °C 34428.8 hPa NW 8 km/h 20.9 km/h 98 % 7.62 mm
01:31 -13.4 °C -13.3 °C 34428.8 hPa NNW 28.5 km/h 28.5 km/h 98 % 7.62 mm
01:36 -13.1 °C -12.8 °C 34428.8 hPa WNW 32.3 km/h 34.1 km/h 98 % 7.62 mm
01:41 -13 °C -12.8 °C 34428.8 hPa WNW 9.3 km/h 34.1 km/h 98 % 7.62 mm
01:43 -13 °C -12.8 °C 34428.8 hPa West 19.6 km/h 34.1 km/h 98 % 7.62 mm
01:48 -12.9 °C -12.8 °C 34428.8 hPa West 12.2 km/h 24.8 km/h 98 % 0 mm
01:50 -12.9 °C -12.8 °C 34428.8 hPa WNW 2.9 km/h 24.8 km/h 98 % 0 mm
01:55 -12.9 °C -12.8 °C 34428.8 hPa NW 15 km/h 20.3 km/h 98 % 0 mm
01:57 -12.9 °C -12.8 °C 34405.1 hPa West 5.1 km/h 20.3 km/h 98 % 0 mm
02:02 -12.9 °C -12.8 °C 34405.1 hPa NNW 12.7 km/h 19.6 km/h 98 % 0 mm
02:04 -12.9 °C -12.8 °C 34405.1 hPa West 6.4 km/h 18.7 km/h 98 % 0 mm
02:09 -12.9 °C -12.8 °C 34405.1 hPa NNW 11.6 km/h 20.9 km/h 98 % 0 mm
02:10 -12.9 °C -12.8 °C 34405.1 hPa SW 9.8 km/h 20.9 km/h 98 % 0 mm
02:11 -12.9 °C -12.8 °C 34428.8 hPa NNE 16.3 km/h 20.9 km/h 98 % 0 mm
02:16 -12.8 °C -12.8 °C 34428.8 hPa North 12.7 km/h 20.9 km/h 98 % 0 mm
02:20 -12.8 °C -12.8 °C 34428.8 hPa NNW 22 km/h 22 km/h 98 % 0 mm
02:25 -12.8 °C -12.8 °C 34428.8 hPa West 11.1 km/h 22 km/h 98 % 0 mm
02:27 -12.8 °C -12.8 °C 34428.8 hPa NNW 7.6 km/h 22 km/h 98 % 0 mm
02:29 -12.8 °C -12.8 °C 34428.8 hPa WNW 12.7 km/h 22.5 km/h 98 % 0 mm
02:34 -12.8 °C -12.8 °C 34428.8 hPa NW 6.4 km/h 22.5 km/h 98 % 0 mm
02:39 -12.8 °C -12.8 °C 34428.8 hPa NNW 8.9 km/h 19.6 km/h 98 % 0 mm
02:44 -12.8 °C -12.8 °C 34476.3 hPa NW 16.9 km/h 27.2 km/h 98 % 0 mm
02:45 -12.8 °C -12.8 °C 34476.3 hPa NNW 24.8 km/h 27.2 km/h 98 % 0 mm
02:46 -12.8 °C -12.8 °C 34476.3 hPa NNW 14 km/h 27.2 km/h 98 % 0 mm
02:50 -12.9 °C -12.8 °C 34476.3 hPa WNW 4.2 km/h 27.2 km/h 98 % 0 mm
02:55 -12.9 °C -12.8 °C 34428.8 hPa WNW 14 km/h 24.3 km/h 98 % 0 mm
02:56 -12.9 °C -12.8 °C 34428.8 hPa WNW 16.3 km/h 24.3 km/h 98 % 0 mm
03:01 -12.9 °C -12.8 °C 34428.8 hPa WNW 14 km/h 26.7 km/h 98 % 0 mm
03:06 -12.9 °C -12.8 °C 34428.8 hPa NW 12.2 km/h 26.7 km/h 98 % 0 mm
03:09 -12.9 °C -12.8 °C 34428.8 hPa West 16.9 km/h 17.9 km/h 98 % 0 mm
03:14 -12.9 °C -12.8 °C 34476.3 hPa NW 12.7 km/h 20.3 km/h 98 % 0 mm
03:15 -12.9 °C -12.8 °C 34476.3 hPa NNW 7.6 km/h 20.3 km/h 98 % 0 mm
03:19 -13 °C -12.8 °C 34476.3 hPa NNW 14 km/h 20.3 km/h 98 % 0 mm
03:20 -13 °C -12.8 °C 34476.3 hPa WNW 11.1 km/h 20.3 km/h 98 % 0 mm
03:25 -13 °C -12.8 °C 34476.3 hPa North 9.3 km/h 22 km/h 98 % 0 mm
03:27 -13.1 °C -12.8 °C 34476.3 hPa West 10.3 km/h 22 km/h 98 % 0 mm
03:32 -13.1 °C -12.8 °C 34476.3 hPa North 15 km/h 22 km/h 98 % 0 mm
03:35 -13.1 °C -12.8 °C 34476.3 hPa NW 19.2 km/h 22 km/h 98 % 0 mm
03:40 -13.1 °C -12.8 °C 34476.3 hPa North 11.1 km/h 25.4 km/h 98 % 0 mm
03:41 -13.1 °C -12.8 °C 34476.3 hPa NNW 14 km/h 25.4 km/h 98 % 0 mm
03:46 -13.1 °C -12.8 °C 34476.3 hPa NNE 5.6 km/h 25.4 km/h 98 % 0 mm
03:50 -13.2 °C -12.8 °C 34476.3 hPa NNE 6.4 km/h 19.6 km/h 98 % 0 mm
03:51 -13.2 °C -12.8 °C 34476.3 hPa Calm   18.7 km/h 98 % 0 mm
03:56 -13.2 °C -13.3 °C 34476.3 hPa NNW 18.7 km/h 19.6 km/h 98 % 0 mm
04:01 -13.3 °C -13.3 °C 34476.3 hPa NNW 6.9 km/h 20.3 km/h 98 % 0 mm
04:02 -13.3 °C -13.3 °C 34476.3 hPa North 2.3 km/h 20.3 km/h 98 % 0 mm
04:07 -13.3 °C -13.3 °C 34476.3 hPa NNW 15.6 km/h 23.8 km/h 98 % 0 mm
04:08 -13.3 °C -13.3 °C 34476.3 hPa NNW 14 km/h 23.8 km/h 98 % 0 mm
04:13 -13.3 °C -13.3 °C 34496.6 hPa North 15.6 km/h 23.8 km/h 98 % 0 mm
04:20 -13.4 °C -13.3 °C 34496.6 hPa North 19.6 km/h 22 km/h 98 % 0 mm
04:21 -13.4 °C -13.3 °C 34496.6 hPa North 4.2 km/h 22 km/h 98 % 0 mm
04:26 -13.4 °C -13.3 °C 34496.6 hPa WNW 14.5 km/h 24.8 km/h 98 % 0 mm
04:28 -13.4 °C -13.3 °C 34496.6 hPa North 7.6 km/h 24.8 km/h 98 % 0 mm
04:33 -13.4 °C -13.3 °C 34496.6 hPa NNW 8.9 km/h 24.8 km/h 98 % 0 mm
04:34 -13.4 °C -13.3 °C 34496.6 hPa NNW 8.9 km/h 24.8 km/h 98 % 0 mm
04:38 -13.5 °C -13.3 °C 34496.6 hPa NNE 8 km/h 16.3 km/h 98 % 0 mm
04:40 -13.5 °C -13.3 °C 34496.6 hPa NW 9.8 km/h 15 km/h 98 % 0 mm
04:45 -13.5 °C -13.3 °C 34496.6 hPa WSW 16.9 km/h 26.2 km/h 98 % 0 mm
04:47 -13.5 °C -13.3 °C 34496.6 hPa North 16.3 km/h 26.2 km/h 98 % 0 mm
04:52 -13.5 °C -13.3 °C 34496.6 hPa NNW 22.5 km/h 26.2 km/h 98 % 0 mm
04:53 -13.5 °C -13.3 °C 34496.6 hPa NNW 9.3 km/h 26.2 km/h 98 % 0 mm
04:58 -13.5 °C -13.3 °C 34476.3 hPa North 16.3 km/h 25.4 km/h 98 % 0 mm
05:02 -13.5 °C -13.3 °C 34476.3 hPa NNW 15.6 km/h 19.2 km/h 98 % 0 mm
05:07 -13.5 °C -13.3 °C 34476.3 hPa North 16.3 km/h 20.3 km/h 98 % 0 mm
05:08 -13.5 °C -13.3 °C 34476.3 hPa North 12.2 km/h 20.3 km/h 98 % 0 mm
05:09 -13.5 °C -13.3 °C 34476.3 hPa North 8.9 km/h 20.3 km/h 98 % 0 mm
05:14 -13.5 °C -13.3 °C 34496.6 hPa NNW 10.3 km/h 20.3 km/h 98 % 0 mm
05:19 -14 °C -14.4 °C 34496.6 hPa NNW 15.6 km/h 25.4 km/h 97 % 0 mm
05:24 -14 °C -14.4 °C 34496.6 hPa NW 9.8 km/h 25.4 km/h 97 % 0 mm
05:29 -14 °C -14.4 °C 34496.6 hPa East 16.3 km/h 24.8 km/h 97 % 0 mm
05:31 -14 °C -14.4 °C 34496.6 hPa NNE 14 km/h 24.8 km/h 97 % 0 mm
05:32 -14 °C -14.4 °C 34496.6 hPa NNE 15.6 km/h 24.8 km/h 97 % 0 mm
05:37 -14 °C -14.4 °C 34496.6 hPa NNW 16.9 km/h 24.8 km/h 97 % 0 mm
05:41 -14 °C -14.4 °C 34496.6 hPa NNW 9.8 km/h 20.3 km/h 97 % 0 mm
05:42 -14 °C -14.4 °C 34496.6 hPa NNW 5.1 km/h 17.9 km/h 97 % 0 mm
05:47 -14 °C -14.4 °C 34496.6 hPa West 4.2 km/h 24.8 km/h 97 % 0 mm
05:48 -14 °C -14.4 °C 34496.6 hPa NNW 14 km/h 24.8 km/h 97 % 0 mm
05:50 -14 °C -14.4 °C 34496.6 hPa NNW 9.8 km/h 24.8 km/h 97 % 0 mm
05:54 -14 °C -14.4 °C 34496.6 hPa North 8.9 km/h 24.8 km/h 97 % 0 mm
05:57 -14 °C -14.4 °C 34496.6 hPa NNW 14 km/h 19.2 km/h 97 % 0 mm
05:59 -14 °C -14.4 °C 34496.6 hPa NNW 2.9 km/h 19.2 km/h 97 % 0 mm
06:04 -14 °C -14.4 °C 34496.6 hPa North 8 km/h 15.6 km/h 97 % 0 mm
06:10 -14 °C -14.4 °C 34496.6 hPa Calm   15.6 km/h 97 % 0 mm
06:12 -14 °C -14.4 °C 34496.6 hPa West 2.9 km/h 15.6 km/h 97 % 0 mm
06:17 -14 °C -14.4 °C 34496.6 hPa NW 9.3 km/h 15 km/h 97 % 0 mm
06:23 -14 °C -14.4 °C 34496.6 hPa North 22 km/h 34.8 km/h 97 % 7.62 mm
06:24 -14.3 °C -14.4 °C 34496.6 hPa NNW 18.7 km/h 34.8 km/h 97 % 7.62 mm
06:27 -14.3 °C -14.4 °C 34533.8 hPa NNE 22.5 km/h 34.8 km/h 97 % 7.62 mm
06:32 -14.3 °C -14.4 °C 34533.8 hPa NNW 10.3 km/h 24.8 km/h 97 % 7.62 mm
06:37 -14.4 °C -14.4 °C 34533.8 hPa WNW 9.3 km/h 20.9 km/h 97 % 7.62 mm
06:42 -14.4 °C -14.4 °C 34567.7 hPa NNE 14.5 km/h 22 km/h 97 % 7.62 mm
06:43 -14.4 °C -14.4 °C 34567.7 hPa WNW 16.3 km/h 22 km/h 97 % 7.62 mm
06:48 -14.4 °C -14.4 °C 34567.7 hPa WNW 6.4 km/h 22 km/h 97 % 7.62 mm
06:53 -14.5 °C -14.4 °C 34567.7 hPa NW 8 km/h 16.3 km/h 97 % 7.62 mm
06:54 -14.5 °C -14.4 °C 34567.7 hPa North 22.5 km/h 22.5 km/h 98 % 7.62 mm
06:58 -14.5 °C -14.4 °C 34567.7 hPa NW 12.7 km/h 22.5 km/h 98 % 7.62 mm
07:03 -14.5 °C -14.4 °C 34567.7 hPa NNW 8 km/h 22.5 km/h 98 % 7.62 mm
07:08 -14.5 °C -14.4 °C 34567.7 hPa NNW 14 km/h 20.3 km/h 98 % 7.62 mm
07:10 -14.6 °C -14.4 °C 34567.7 hPa NNW 9.8 km/h 20.3 km/h 98 % 7.62 mm
07:14 -14.5 °C -14.4 °C 34567.7 hPa North 16.3 km/h 27.7 km/h 98 % 7.62 mm
07:17 -14.5 °C -14.4 °C 34567.7 hPa NNE 9.3 km/h 27.7 km/h 98 % 7.62 mm
07:22 -14.5 °C -14.4 °C 34567.7 hPa NNW 14 km/h 27.7 km/h 98 % 0 mm
07:27 -14.4 °C -14.4 °C 34567.7 hPa NNW 15.6 km/h 26.2 km/h 98 % 0 mm
07:29 -14.3 °C -14.4 °C 34567.7 hPa NE 9.8 km/h 26.2 km/h 98 % 0 mm
07:34 -14.3 °C -14.4 °C 34567.7 hPa North 22.5 km/h 26.2 km/h 98 % 0 mm
07:38 -14.4 °C -14.4 °C 34567.7 hPa North 11.1 km/h 22.5 km/h 98 % 0 mm
07:39 -14.4 °C -14.4 °C 34567.7 hPa North 2.3 km/h 22.5 km/h 98 % 0 mm
07:44 -14.4 °C -14.4 °C 34567.7 hPa North 5.1 km/h 22.5 km/h 98 % 0 mm
07:49 -14.3 °C -14.4 °C 34567.7 hPa North 9.8 km/h 20.3 km/h 98 % 0 mm
07:54 -14.3 °C -14.4 °C 34567.7 hPa NNW 9.8 km/h 20.3 km/h 98 % 0 mm
07:59 -14.3 °C -14.4 °C 34567.7 hPa Calm   20.3 km/h 98 % 0 mm
08:04 -14.3 °C -14.4 °C 34567.7 hPa North 14 km/h 22 km/h 98 % 0 mm
08:05 -14.2 °C -14.4 °C 34567.7 hPa North 20.3 km/h 22 km/h 98 % 0 mm
08:10 -14.2 °C -14.4 °C 34601.5 hPa NNW 15 km/h 22 km/h 98 % 0 mm
08:11 -14.2 °C -14.4 °C 34601.5 hPa NNW 8 km/h 22 km/h 98 % 0 mm
08:16 -14.2 °C -14.4 °C 34601.5 hPa WSW 9.3 km/h 20.9 km/h 98 % 0 mm
08:17 -14.2 °C -14.4 °C 34601.5 hPa NNW 19.6 km/h 20.9 km/h 98 % 0 mm
08:19 -14.2 °C -14.4 °C 34601.5 hPa NNW 12.7 km/h 19.6 km/h 98 % 0 mm
08:24 -14.2 °C -14.4 °C 34601.5 hPa NW 16.9 km/h 25.4 km/h 98 % 0 mm
08:25 -14.2 °C -14.4 °C 34601.5 hPa North 14.5 km/h 25.4 km/h 98 % 0 mm
08:30 -14.2 °C -14.4 °C 34601.5 hPa NNE 12.2 km/h 25.4 km/h 98 % 0 mm
08:31 -14.2 °C -14.4 °C 34601.5 hPa NNW 19.6 km/h 22 km/h 98 % 0 mm
08:32 -14.2 °C -14.4 °C 34601.5 hPa West 5.1 km/h 22 km/h 98 % 0 mm
08:37 -14.2 °C -14.4 °C 34601.5 hPa North 6.9 km/h 22 km/h 98 % 0 mm
08:39 -14.2 °C -14.4 °C 34601.5 hPa NW 5.1 km/h 20.3 km/h 98 % 0 mm
08:44 -14.2 °C -14.4 °C 34601.5 hPa NNE 9.8 km/h 20.3 km/h 98 % 0 mm
08:45 -14.2 °C -14.4 °C 34601.5 hPa North 7.6 km/h 20.3 km/h 98 % 0 mm
08:47 -14.2 °C -14.4 °C 34601.5 hPa NW 8.9 km/h 20.3 km/h 98 % 0 mm
08:53 -14.2 °C -14.4 °C 34601.5 hPa North 11.1 km/h 22 km/h 98 % 0 mm
08:54 -14.2 °C -14.4 °C 34601.5 hPa North 14.5 km/h 26.2 km/h 98 % 0 mm
09:00 -14.2 °C -14.4 °C 34635.4 hPa NNE 15.6 km/h 26.2 km/h 98 % 0 mm
09:05 -14.2 °C -14.4 °C 34635.4 hPa NW 12.7 km/h 22 km/h 98 % 0 mm
09:07 -14.2 °C -14.4 °C 34635.4 hPa North 16.9 km/h 22 km/h 98 % 0 mm
09:12 -14.2 °C -14.4 °C 34635.4 hPa NW 20.9 km/h 25.4 km/h 98 % 0 mm
09:17 -14.2 °C -14.4 °C 34635.4 hPa North 14 km/h 26.7 km/h 98 % 0 mm
09:18 -14.2 °C -14.4 °C 34635.4 hPa NNE 12.7 km/h 26.7 km/h 98 % 0 mm
09:23 -14.2 °C -14.4 °C 34635.4 hPa North 9.8 km/h 26.7 km/h 98 % 0 mm
09:25 -14.2 °C -14.4 °C 34601.5 hPa NNW 19.6 km/h 25.4 km/h 98 % 0 mm
09:30 -14.2 °C -14.4 °C 34601.5 hPa WNW 15.6 km/h 25.4 km/h 98 % 0 mm
09:31 -14.2 °C -14.4 °C 34601.5 hPa North 15.6 km/h 22 km/h 98 % 0 mm
09:36 -14.2 °C -14.4 °C 34601.5 hPa NNE 14 km/h 22.5 km/h 98 % 0 mm
09:39 -14.2 °C -14.4 °C 34601.5 hPa NNW 16.9 km/h 22.5 km/h 98 % 0 mm
09:44 -14.2 °C -14.4 °C 34635.4 hPa NNW 16.3 km/h 22.5 km/h 98 % 7.62 mm
09:45 -14.2 °C -14.4 °C 34635.4 hPa NNW 12.2 km/h 22.5 km/h 98 % 7.62 mm
09:50 -14.2 °C -14.4 °C 34635.4 hPa NNE 2.9 km/h 20.9 km/h 98 % 7.62 mm
09:54 -14.2 °C -14.4 °C 34635.4 hPa NNW 14 km/h 20.9 km/h 98 % 7.62 mm
09:59 -14.2 °C -14.4 °C 34669.3 hPa North 15 km/h 26.2 km/h 98 % 7.62 mm
10:05 -14.2 °C -14.4 °C 34669.3 hPa NNW 8 km/h 37.5 km/h 98 % 7.62 mm
10:10 -14.2 °C -14.4 °C 34669.3 hPa NNW 20.3 km/h 37.5 km/h 98 % 7.62 mm
10:12 -14.2 °C -14.4 °C 34669.3 hPa NNW 17.4 km/h 37.5 km/h 98 % 7.62 mm
10:16 -14.2 °C -14.4 °C 34669.3 hPa NNW 20.9 km/h 22 km/h 98 % 7.62 mm
10:18 -14.2 °C -14.4 °C 34669.3 hPa NNW 14.5 km/h 28.5 km/h 98 % 7.62 mm
10:23 -13.9 °C -13.9 °C 34669.3 hPa NNW 14.5 km/h 28.5 km/h 98 % 7.62 mm
10:27 -13.9 °C -13.9 °C 34669.3 hPa North 15.6 km/h 28.5 km/h 98 % 7.62 mm
10:28 -13.9 °C -13.9 °C 34669.3 hPa NNE 12.7 km/h 26.2 km/h 98 % 7.62 mm
10:33 -13.6 °C -13.3 °C 34669.3 hPa North 11.1 km/h 27.2 km/h 98 % 7.62 mm
10:34 -13.6 °C -13.3 °C 34669.3 hPa NW 11.1 km/h 27.2 km/h 98 % 7.62 mm
10:39 -13.5 °C -13.9 °C 34669.3 hPa NNW 14.5 km/h 24.3 km/h 97 % 7.62 mm
10:42 -13.5 °C -13.9 °C 34703.1 hPa North 15 km/h 24.3 km/h 97 % 0 mm
10:46 -13.4 °C -13.9 °C 34703.1 hPa North 14 km/h 24.3 km/h 96 % 0 mm
10:50 -13.4 °C -13.9 °C 34703.1 hPa North 15.6 km/h 26.7 km/h 96 % 0 mm
10:53 -13.4 °C -13.9 °C 34703.1 hPa NNW 14 km/h 26.7 km/h 95 % 0 mm
10:58 -13.3 °C -13.3 °C 34703.1 hPa NNW 12.2 km/h 25.4 km/h 95 % 0 mm
11:03 -13.3 °C -13.9 °C 34703.1 hPa NE 15.6 km/h 22.5 km/h 94 % 0 mm
11:05 -13.3 °C -13.9 °C 34703.1 hPa NNE 15.6 km/h 22.5 km/h 94 % 0 mm
11:06 -13.3 °C -13.9 °C 34703.1 hPa NW 9.3 km/h 22.5 km/h 94 % 0 mm
11:11 -13.3 °C -13.9 °C 34703.1 hPa North 20.9 km/h 26.7 km/h 93 % 0 mm
11:14 -13.3 °C -13.9 °C 34703.1 hPa NNW 16.3 km/h 26.7 km/h 92 % 0 mm
11:17 -13.3 °C -13.9 °C 34703.1 hPa North 19.2 km/h 26.7 km/h 93 % 0 mm
11:21 -13.3 °C -13.9 °C 34703.1 hPa NNE 16.9 km/h 26.2 km/h 93 % 0 mm
11:26 -13.2 °C -13.3 °C 34703.1 hPa NNW 12.7 km/h 26.2 km/h 93 % 0 mm
11:27 -13.2 °C -13.3 °C 34703.1 hPa North 8.9 km/h 22 km/h 93 % 0 mm
11:32 -13.1 °C -13.9 °C 34703.1 hPa North 7.6 km/h 20.3 km/h 92 % 0 mm
11:37 -13.1 °C -13.9 °C 34703.1 hPa North 8 km/h 23.8 km/h 92 % 0 mm
11:39 -13.1 °C -13.3 °C 34703.1 hPa North 19.6 km/h 23.8 km/h 92 % 0 mm
11:43 -13.1 °C -13.3 °C 34669.3 hPa North 9.8 km/h 23.8 km/h 92 % 0 mm
11:47 -13.1 °C -13.3 °C 34669.3 hPa North 22 km/h 24.8 km/h 92 % 0 mm
11:52 -13.1 °C -13.3 °C 34669.3 hPa North 8.9 km/h 24.8 km/h 92 % 0 mm
11:56 -13.1 °C -13.3 °C 34669.3 hPa NNW 12.7 km/h 24.8 km/h 92 % 0 mm
12:01 -12.8 °C -13.3 °C 34669.3 hPa North 8 km/h 20.9 km/h 90 % 0 mm
12:03 -12.8 °C -13.3 °C 34669.3 hPa North 16.9 km/h 20.3 km/h 90 % 0 mm
12:04 -12.8 °C -13.3 °C 34669.3 hPa North 11.6 km/h 20.3 km/h 90 % 0 mm
12:09 -12.8 °C -13.3 °C 34669.3 hPa NE 16.9 km/h 22.5 km/h 89 % 0 mm
12:14 -12.8 °C -13.3 °C 34703.1 hPa North 17.9 km/h 23 km/h 89 % 0 mm
12:16 -12.8 °C -13.3 °C 34703.1 hPa NNW 14 km/h 23 km/h 89 % 0 mm
12:20 -12.8 °C -13.3 °C 34703.1 hPa NNE 23.8 km/h 27.2 km/h 89 % 0 mm
12:22 -12.8 °C -13.3 °C 34703.1 hPa North 14.5 km/h 27.2 km/h 89 % 0 mm
12:27 -12.8 °C -13.3 °C 34703.1 hPa NE 24.3 km/h 27.2 km/h 89 % 0 mm
12:32 -12.8 °C -13.3 °C 34703.1 hPa NNE 14.5 km/h 25.4 km/h 89 % 0 mm
12:34 -12.8 °C -13.3 °C 34703.1 hPa North 16.9 km/h 25.4 km/h 89 % 0 mm
12:39 -12.8 °C -13.3 °C 34703.1 hPa NNE 16.9 km/h 25.4 km/h 89 % 0 mm
12:40 -12.8 °C -13.3 °C 34703.1 hPa North 14.5 km/h 20.9 km/h 89 % 0 mm
12:42 -12.8 °C -13.3 °C 34703.1 hPa NNW 2.9 km/h 20.9 km/h 89 % 0 mm
12:47 -12.8 °C -13.3 °C 34703.1 hPa NNW 20.9 km/h 22.5 km/h 89 % 0 mm
12:48 -12.8 °C -13.3 °C 34703.1 hPa North 16.9 km/h 22.5 km/h 89 % 0 mm
12:53 -12.8 °C -13.3 °C 34703.1 hPa North 22.5 km/h 27.2 km/h 89 % 0 mm
12:54 -12.8 °C -13.3 °C 34703.1 hPa North 19.6 km/h 27.2 km/h 89 % 0 mm
12:58 -12.8 °C -13.3 °C 34703.1 hPa North 22 km/h 28.5 km/h 89 % 0 mm
13:02 -12.8 °C -13.3 °C 34703.1 hPa NNE 16.9 km/h 28.5 km/h 89 % 0 mm
13:05 -12.8 °C -13.3 °C 34703.1 hPa North 20.3 km/h 29.5 km/h 89 % 0 mm
13:08 -12.8 °C -13.3 °C 34703.1 hPa NE 19.6 km/h 29.5 km/h 89 % 0 mm
13:13 -12.8 °C -13.3 °C 34703.1 hPa NNE 18.7 km/h 29.5 km/h 89 % 0 mm
13:15 -12.8 °C -13.3 °C 34703.1 hPa NNE 20.3 km/h 29.5 km/h 89 % 0 mm
13:16 -12.8 °C -13.3 °C 34703.1 hPa North 19.6 km/h 25.4 km/h 89 % 0 mm
13:21 -12.6 °C -13.9 °C 34703.1 hPa NNW 9.8 km/h 28.5 km/h 83 % 0 mm
13:24 -12.4 °C -13.9 °C 34703.1 hPa North 14 km/h 28.5 km/h 83 % 0 mm
13:27 -12.4 °C -13.9 °C 34703.1 hPa North 14.5 km/h 28.5 km/h 83 % 0 mm
13:32 -12.6 °C -13.9 °C 34703.1 hPa North 16.9 km/h 22.5 km/h 83 % 0 mm
13:34 -12.5 °C -13.9 °C 34703.1 hPa North 14 km/h 22.5 km/h 83 % 0 mm
13:39 -12.6 °C -13.9 °C 34703.1 hPa NNE 15.6 km/h 26.2 km/h 83 % 0 mm
13:40 -12.6 °C -13.9 °C 34703.1 hPa NNE 19.2 km/h 26.2 km/h 83 % 0 mm
13:45 -12.5 °C -13.9 °C 34740.4 hPa WNW 11.1 km/h 26.2 km/h 83 % 0 mm
13:47 -12.5 °C -13.9 °C 34740.4 hPa NNW 33.6 km/h 33.6 km/h 83 % 0 mm
13:49 -12.5 °C -13.9 °C 34740.4 hPa North 25.4 km/h 33.6 km/h 83 % 0 mm
13:54 -12.5 °C -13.9 °C 34740.4 hPa North 17.9 km/h 33.6 km/h 83 % 0 mm
13:56 -12.5 °C -13.9 °C 34740.4 hPa North 8 km/h 33.6 km/h 81 % 0 mm
14:01 -12.5 °C -13.9 °C 34740.4 hPa NNW 20.3 km/h 29.5 km/h 81 % 0 mm
14:02 -12.5 °C -13.9 °C 34740.4 hPa North 9.3 km/h 29.5 km/h 81 % 0 mm
14:07 -12.5 °C -13.9 °C 34740.4 hPa North 25.4 km/h 34.8 km/h 81 % 0 mm
14:08 -12.5 °C -13.9 °C 34740.4 hPa NNE 15.6 km/h 34.8 km/h 81 % 0 mm
14:13 -12.7 °C -14.4 °C 34740.4 hPa NW 16.9 km/h 34.8 km/h 80 % 0 mm
14:15 -12.7 °C -14.4 °C 34740.4 hPa North 20.9 km/h 32.3 km/h 80 % 0 mm
14:16 -12.7 °C -14.4 °C 34740.4 hPa NNW 16.3 km/h 32.3 km/h 80 % 0 mm
14:21 -12.7 °C -14.4 °C 34740.4 hPa NNE 25.4 km/h 27.2 km/h 80 % 0 mm
14:26 -12.8 °C -14.4 °C 34740.4 hPa North 22 km/h 27.7 km/h 80 % 0 mm
14:27 -12.8 °C -14.4 °C 34740.4 hPa Calm   27.7 km/h 80 % 0 mm
14:32 -12.8 °C -14.4 °C 34740.4 hPa North 8 km/h 27.7 km/h 80 % 0 mm
14:33 -12.8 °C -14.4 °C 34740.4 hPa North 12.7 km/h 26.7 km/h 80 % 0 mm
14:35 -12.7 °C -14.4 °C 34740.4 hPa NNW 15.6 km/h 22 km/h 81 % 0 mm
14:39 -12.7 °C -14.4 °C 34740.4 hPa NNE 16.3 km/h 22 km/h 81 % 0 mm
14:41 -12.6 °C -13.9 °C 34740.4 hPa NNW 14.5 km/h 20.9 km/h 82 % 0 mm
14:45 -12.6 °C -13.9 °C 34740.4 hPa NNW 8.9 km/h 22.5 km/h 82 % 0 mm
14:50 -12.6 °C -13.9 °C 34740.4 hPa NNW 24.8 km/h 24.8 km/h 82 % 0 mm
14:51 -12.6 °C -13.9 °C 34740.4 hPa NNW 9.3 km/h 24.8 km/h 82 % 0 mm
14:55 -12.6 °C -13.9 °C 34740.4 hPa North 11.1 km/h 25.4 km/h 82 % 0 mm
14:57 -12.6 °C -13.9 °C 34774.2 hPa NNW 9.8 km/h 25.4 km/h 82 % 0 mm
15:01 -12.6 °C -13.9 °C 34774.2 hPa NE 16.9 km/h 25.4 km/h 82 % 0 mm
15:06 -12.6 °C -13.9 °C 34774.2 hPa North 9.3 km/h 23 km/h 82 % 0 mm
15:08 -12.6 °C -13.9 °C 34774.2 hPa North 12.7 km/h 23 km/h 82 % 0 mm
15:13 -12.6 °C -13.9 °C 34774.2 hPa North 14 km/h 22.5 km/h 82 % 0 mm
15:17 -12.5 °C -13.9 °C 34774.2 hPa North 14.5 km/h 22.5 km/h 82 % 0 mm
15:19 -12.5 °C -13.9 °C 34774.2 hPa NNE 14.5 km/h 20.9 km/h 82 % 0 mm
15:24 -12.5 °C -13.9 °C 34774.2 hPa North 18.7 km/h 20.9 km/h 82 % 0 mm
15:26 -12.5 °C -13.9 °C 34774.2 hPa North 23.8 km/h 23.8 km/h 82 % 0 mm
15:31 -12.5 °C -13.9 °C 34774.2 hPa North 10.3 km/h 27.2 km/h 82 % 0 mm
15:33 -12.5 °C -13.9 °C 34774.2 hPa North 8 km/h 27.2 km/h 82 % 0 mm
15:35 -12.5 °C -13.9 °C 34774.2 hPa North 20.9 km/h 27.2 km/h 82 % 0 mm
15:40 -12.5 °C -13.9 °C 34774.2 hPa North 9.8 km/h 22.5 km/h 82 % 0 mm
15:45 -12.5 °C -13.9 °C 34740.4 hPa NNW 16.9 km/h 22.5 km/h 82 % 0 mm
15:50 -12.9 °C -14.4 °C 34740.4 hPa NNW 14 km/h 22.5 km/h 82 % 0 mm
15:52 -12.9 °C -14.4 °C 34740.4 hPa North 14.5 km/h 22.5 km/h 82 % 0 mm
15:57 -13.1 °C -14.4 °C 34774.2 hPa North 6.9 km/h 16.9 km/h 82 % 0 mm
15:58 -13.1 °C -14.4 °C 34774.2 hPa NNE 8 km/h 16.9 km/h 82 % 0 mm
16:02 -13.1 °C -14.4 °C 34774.2 hPa NNW 12.2 km/h 14.5 km/h 83 % 0 mm
16:07 -13.2 °C -14.4 °C 34774.2 hPa North 12.7 km/h 15 km/h 83 % 0 mm
16:08 -13.2 °C -14.4 °C 34774.2 hPa North 4.2 km/h 15 km/h 83 % 0 mm
16:13 -13.3 °C -14.4 °C 34774.2 hPa NNW 8.9 km/h 15 km/h 84 % 0 mm
16:14 -13.4 °C -14.4 °C 34774.2 hPa WNW 7.6 km/h 15 km/h 84 % 0 mm
16:19 -13.4 °C -14.4 °C 34774.2 hPa Calm   14 km/h 85 % 0 mm
16:20 -13.4 °C -14.4 °C 34774.2 hPa NE 14.5 km/h 14.5 km/h 85 % 0 mm
16:21 -13.4 °C -14.4 °C 34774.2 hPa NNW 8.9 km/h 14.5 km/h 85 % 0 mm
16:26 -13.5 °C -14.4 °C 34774.2 hPa NNW 6.4 km/h 15.6 km/h 85 % 0 mm
16:27 -13.5 °C -14.4 °C 34774.2 hPa NNW 11.1 km/h 15.6 km/h 85 % 0 mm
16:32 -13.6 °C -14.4 °C 34774.2 hPa NNW 9.8 km/h 17.4 km/h 86 % 0 mm
16:36 -13.7 °C -15 °C 34774.2 hPa Calm   17.4 km/h 86 % 0 mm
16:42 -13.7 °C -15 °C 34774.2 hPa NNW 7.6 km/h 12.7 km/h 86 % 0 mm
16:47 -13.8 °C -15 °C 34774.2 hPa NNW 9.8 km/h 19.2 km/h 87 % 0 mm
16:50 -13.8 °C -15 °C 34774.2 hPa NNE 10.3 km/h 19.2 km/h 88 % 0 mm
16:51 -13.8 °C -15 °C 34774.2 hPa NNE 10.3 km/h 19.2 km/h 88 % 0 mm
16:56 -13.9 °C -15 °C 34808.1 hPa Calm   15 km/h 88 % 0 mm
17:00 -14 °C -15 °C 34808.1 hPa NNW 7.6 km/h 15.6 km/h 89 % 0 mm
17:01 -14 °C -15 °C 34808.1 hPa Calm   15.6 km/h 89 % 0 mm
17:06 -14.1 °C -15 °C 34808.1 hPa NNW 7.6 km/h 15.6 km/h 90 % 0 mm
17:09 -14.1 °C -15 °C 34808.1 hPa Calm   15.6 km/h 90 % 0 mm
17:12 -14.2 °C -15 °C 34808.1 hPa NNW 9.3 km/h 15 km/h 90 % 0 mm
17:16 -14.2 °C -15 °C 34808.1 hPa NW 4.2 km/h 11.1 km/h 90 % 0 mm
17:18 -14.2 °C -15 °C 34808.1 hPa Calm   10.3 km/h 90 % 0 mm
17:23 -14.3 °C -15 °C 34808.1 hPa Calm   9.8 km/h 91 % 0 mm
17:26 -14.4 °C -15 °C 34808.1 hPa Calm   9.8 km/h 90 % 0 mm
17:28 -14.4 °C -15 °C 34808.1 hPa Calm   9.8 km/h 90 % 0 mm
17:33 -14.5 °C -15 °C 34808.1 hPa Calm   8 km/h 91 % 0 mm
17:34 -14.5 °C -15 °C 34808.1 hPa Calm   8 km/h 91 % 0 mm
17:39 -14.6 °C -15 °C 34808.1 hPa Calm   8 km/h 91 % 0 mm
17:42 -14.6 °C -15 °C 34808.1 hPa Calm   8 km/h 91 % 0 mm
17:44 -14.7 °C -15 °C 34808.1 hPa Calm   8 km/h 92 % 0 mm
17:48 -14.6 °C -15 °C 34808.1 hPa Calm   15 km/h 93 % 0 mm
17:49 -14.6 °C -15 °C 34808.1 hPa NNW 8.9 km/h 15 km/h 93 % 0 mm
17:54 -14.7 °C -15 °C 34808.1 hPa NW 5.1 km/h 15 km/h 94 % 0 mm
17:59 -14.7 °C -15 °C 34841.9 hPa Calm   10.3 km/h 94 % 0 mm
18:00 -14.7 °C -15 °C 34841.9 hPa Calm   5.6 km/h 94 % 0 mm
18:02 -14.7 °C -15 °C 34841.9 hPa Calm   6.4 km/h 94 % 0 mm
18:06 -14.8 °C -15 °C 34841.9 hPa Calm   7.6 km/h 94 % 0 mm
18:11 -14.8 °C -15 °C 34841.9 hPa North 6.9 km/h 10.3 km/h 94 % 0 mm
18:16 -14.8 °C -15 °C 34841.9 hPa NNW 7.6 km/h 10.3 km/h 95 % 0 mm
18:19 -14.8 °C -15 °C 34841.9 hPa NNW 2.3 km/h 11.1 km/h 95 % 0 mm
18:24 -14.7 °C -14.4 °C 34841.9 hPa North 8.9 km/h 15 km/h 97 % 0 mm
18:28 -14.6 °C -14.4 °C 34841.9 hPa North 12.7 km/h 15 km/h 97 % 0 mm
18:33 -14.6 °C -14.4 °C 34841.9 hPa NNW 12.2 km/h 15 km/h 97 % 0 mm
18:34 -14.6 °C -14.4 °C 34841.9 hPa NNW 12.2 km/h 15 km/h 97 % 0 mm
18:39 -14.6 °C -14.4 °C 34841.9 hPa NE 6.4 km/h 15 km/h 97 % 0 mm
18:43 -14.6 °C -14.4 °C 34841.9 hPa Calm   15 km/h 97 % 0 mm
18:46 -14.7 °C -14.4 °C 34841.9 hPa Calm   14 km/h 97 % 0 mm
18:51 -14.7 °C -14.4 °C 34841.9 hPa Calm   14 km/h 97 % 0 mm
18:52 -14.7 °C -14.4 °C 34841.9 hPa Calm   14 km/h 97 % 0 mm
18:54 -14.7 °C -14.4 °C 34841.9 hPa NNW 2.9 km/h 14 km/h 96 % 0 mm
18:58 -14.8 °C -15 °C 34841.9 hPa NNW 2.9 km/h 11.1 km/h 96 % 0 mm
19:03 -14.8 °C -15 °C 34841.9 hPa Calm   11.1 km/h 96 % 0 mm
19:04 -14.8 °C -15 °C 34841.9 hPa Calm   11.1 km/h 96 % 0 mm
19:09 -14.8 °C -15 °C 34841.9 hPa NNW 7.6 km/h 12.7 km/h 96 % 0 mm
19:10 -14.8 °C -15 °C 34841.9 hPa Calm   12.7 km/h 96 % 0 mm
19:15 -14.8 °C -15 °C 34841.9 hPa Calm   12.7 km/h 96 % 0 mm
19:20 -14.8 °C -15 °C 34841.9 hPa NNW 3.4 km/h 10.3 km/h 96 % 0 mm
19:21 -14.8 °C -15 °C 34841.9 hPa Calm   10.3 km/h 97 % 0 mm
19:26 -14.8 °C -15 °C 34841.9 hPa Calm   10.3 km/h 97 % 0 mm
19:27 -14.8 °C -15 °C 34841.9 hPa NNW 8.9 km/h 10.3 km/h 97 % 0 mm
19:28 -14.8 °C -15 °C 34841.9 hPa North 6.9 km/h 10.3 km/h 97 % 0 mm
19:33 -14.8 °C -15 °C 34841.9 hPa WNW 2.3 km/h 14.5 km/h 97 % 0 mm
19:36 -14.8 °C -15 °C 34841.9 hPa NNW 4.2 km/h 14.5 km/h 97 % 0 mm
19:41 -14.8 °C -15 °C 34841.9 hPa WNW 16.3 km/h 16.3 km/h 97 % 0 mm
19:46 -14.8 °C -14.4 °C 34841.9 hPa North 6.9 km/h 16.9 km/h 98 % 0 mm
19:51 -14.8 °C -14.4 °C 34841.9 hPa NW 7.6 km/h 16.9 km/h 98 % 0 mm
19:52 -14.8 °C -14.4 °C 34841.9 hPa NNW 2.3 km/h 16.9 km/h 98 % 0 mm
19:55 -14.8 °C -14.4 °C 34841.9 hPa North 9.8 km/h 15.6 km/h 98 % 0 mm
19:57 -14.9 °C -15 °C 34875.8 hPa NNW 16.3 km/h 16.3 km/h 98 % 0 mm
20:02 -14.8 °C -14.4 °C 34875.8 hPa NNW 8 km/h 16.3 km/h 98 % 0 mm
20:05 -14.8 °C -14.4 °C 34875.8 hPa NW 6.4 km/h 16.3 km/h 98 % 0 mm
20:10 -14.9 °C -15 °C 34875.8 hPa North 6.4 km/h 15.6 km/h 98 % 0 mm
20:11 -14.9 °C -15 °C 34875.8 hPa North 8 km/h 15.6 km/h 98 % 0 mm
20:13 -14.9 °C -15 °C 34875.8 hPa Calm   14.5 km/h 98 % 0 mm
20:17 -15 °C -15 °C 34875.8 hPa Calm   14.5 km/h 97 % 0 mm
20:23 -15.1 °C -15 °C 34875.8 hPa Calm   9.3 km/h 98 % 0 mm
20:25 -15.1 °C -15 °C 34875.8 hPa North 4.2 km/h 9.3 km/h 98 % 0 mm
20:30 -15.1 °C -15 °C 34875.8 hPa Calm   11.1 km/h 98 % 0 mm
20:32 -15.1 °C -15 °C 34875.8 hPa NNW 2.3 km/h 11.1 km/h 98 % 0 mm
20:37 -15.1 °C -15 °C 34875.8 hPa Calm   9.8 km/h 98 % 0 mm
20:38 -15.1 °C -15 °C 34875.8 hPa Calm   7.6 km/h 98 % 0 mm
20:41 -15.1 °C -15 °C 34875.8 hPa NNW 4.2 km/h 8 km/h 98 % 0 mm
20:44 -15.1 °C -15 °C 34875.8 hPa Calm   8 km/h 98 % 0 mm
20:49 -15.1 °C -15 °C 34875.8 hPa North 6.9 km/h 11.1 km/h 98 % 0 mm
20:52 -15.1 °C -15 °C 34875.8 hPa North 6.9 km/h 11.1 km/h 98 % 0 mm
20:55 -15.1 °C -15 °C 34875.8 hPa North 4.2 km/h 11.1 km/h 98 % 0 mm
20:58 -15.1 °C -15 °C 34875.8 hPa NNW 7.6 km/h 11.1 km/h 98 % 0 mm
21:02 -15.1 °C -15 °C 34875.8 hPa NNW 8.9 km/h 14.5 km/h 98 % 0 mm
21:03 -15.1 °C -15 °C 34875.8 hPa NW 10.3 km/h 14.5 km/h 98 % 0 mm
21:08 -15.2 °C -15 °C 34875.8 hPa Calm   14.5 km/h 98 % 0 mm
21:09 -15.2 °C -15 °C 34875.8 hPa NNW 7.6 km/h 14.5 km/h 98 % 0 mm
21:13 -15.2 °C -15 °C 34875.8 hPa Calm   14.5 km/h 98 % 0 mm
21:14 -15.2 °C -15 °C 34875.8 hPa Calm   14.5 km/h 98 % 0 mm
21:19 -15.2 °C -15 °C 34875.8 hPa WNW 5.1 km/h 12.2 km/h 98 % 0 mm
21:20 -15.2 °C -15 °C 34875.8 hPa NNW 8 km/h 12.2 km/h 98 % 0 mm
21:25 -15.2 °C -15 °C 34875.8 hPa Calm   11.1 km/h 98 % 0 mm
21:27 -15.2 °C -15 °C 34875.8 hPa Calm   11.1 km/h 98 % 0 mm
21:28 -15.2 °C -15 °C 34875.8 hPa NNW 3.4 km/h 11.1 km/h 98 % 0 mm
21:33 -15.2 °C -15 °C 34875.8 hPa NW 6.4 km/h 10.3 km/h 98 % 0 mm
21:34 -15.2 °C -15 °C 34875.8 hPa WNW 7.6 km/h 10.3 km/h 98 % 0 mm
21:39 -15.2 °C -15 °C 34875.8 hPa NNW 5.1 km/h 9.8 km/h 98 % 0 mm
21:41 -15.2 °C -15 °C 34875.8 hPa WNW 14.5 km/h 14.5 km/h 98 % 0 mm
21:46 -15.2 °C -15 °C 34875.8 hPa WNW 9.3 km/h 14.5 km/h 98 % 0 mm
21:47 -15.2 °C -15 °C 34875.8 hPa NNW 6.4 km/h 14.5 km/h 98 % 0 mm
21:52 -15.1 °C -15 °C 34875.8 hPa NW 2.3 km/h 11.1 km/h 98 % 0 mm
21:54 -15.1 °C -15 °C 34875.8 hPa WNW 10.3 km/h 12.2 km/h 98 % 0 mm
22:04 -15.1 °C -15 °C 34909.7 hPa NNW 11.1 km/h 14.5 km/h 98 % 0 mm
22:09 -15 °C -15 °C 34909.7 hPa NW 8 km/h 14.5 km/h 98 % 0 mm
22:11 -15.1 °C -15 °C 34909.7 hPa Calm   18.7 km/h 98 % 0 mm
22:14 -15.1 °C -15 °C 34909.7 hPa NNW 6.9 km/h 18.7 km/h 98 % 0 mm
22:16 -15.1 °C -15 °C 34909.7 hPa Calm   18.7 km/h 98 % 0 mm
22:20 -15.1 °C -15 °C 34909.7 hPa Calm   11.1 km/h 98 % 0 mm
22:23 -15.1 °C -15 °C 34909.7 hPa Calm   10.3 km/h 98 % 0 mm
22:28 -15.2 °C -15 °C 34909.7 hPa Calm   10.3 km/h 98 % 0 mm
22:33 -15.2 °C -15 °C 34909.7 hPa Calm   7.6 km/h 98 % 0 mm
22:38 -15.2 °C -15 °C 34909.7 hPa NNW 7.6 km/h 8.9 km/h 98 % 0 mm
22:41 -15.2 °C -15 °C 34909.7 hPa NNE 3.4 km/h 11.1 km/h 98 % 0 mm
22:46 -15.2 °C -15 °C 34909.7 hPa WNW 7.6 km/h 11.1 km/h 98 % 0 mm
22:51 -15.2 °C -15 °C 34909.7 hPa NNW 6.4 km/h 12.7 km/h 98 % 0 mm
22:53 -15.2 °C -15 °C 34909.7 hPa WNW 7.6 km/h 12.7 km/h 98 % 0 mm
22:58 -15.2 °C -15 °C 34909.7 hPa North 8.9 km/h 14 km/h 98 % 0 mm
23:04 -15.2 °C -15 °C 34909.7 hPa Calm   14 km/h 98 % 0 mm
23:09 -15.2 °C -15 °C 34909.7 hPa NNW 4.2 km/h 11.1 km/h 98 % 0 mm
23:11 -15.2 °C -15 °C 34909.7 hPa WNW 6.9 km/h 11.1 km/h 98 % 0 mm
23:12 -15.2 °C -15 °C 34909.7 hPa North 3.4 km/h 11.1 km/h 98 % 0 mm
23:17 -15.2 °C -15 °C 34909.7 hPa Calm   10.3 km/h 98 % 0 mm
23:20 -15.3 °C -15 °C 34909.7 hPa WNW 6.4 km/h 9.3 km/h 98 % 0 mm
23:26 -15.3 °C -15 °C 34875.8 hPa Calm   9.8 km/h 98 % 0 mm
23:28 -15.3 °C -15 °C 34875.8 hPa Calm   9.8 km/h 98 % 0 mm
23:31 -15.3 °C -15 °C 34875.8 hPa Calm   9.8 km/h 98 % 0 mm
23:35 -15.3 °C -15.6 °C 34875.8 hPa Calm   8 km/h 98 % 0 mm
23:40 -15.7 °C -15.6 °C 34909.7 hPa Calm   8 km/h 98 % 0 mm
23:41 -15.7 °C -15.6 °C 34909.7 hPa Calm   8 km/h 98 % 0 mm
23:46 -16 °C -16.1 °C 34909.7 hPa Calm     98 % 0 mm
23:49 -16.1 °C -16.1 °C 34909.7 hPa Calm     97 % 0 mm
23:54 -16.3 °C -16.1 °C 34909.7 hPa Calm   6.4 km/h 97 % 0 mm
23:57 -16.3 °C -16.1 °C 34909.7 hPa Calm   6.4 km/h 97 % 0 mm
Le Gheer Warneton
Courtoisie de Weather Underground - 3 mb

Mise a jour : 25/02/2018 14:50:11
Généré par Cumulus 1.9.4 (1099)